Location: Observatoire
(46.1952°N, 5.3391°E)
Time: 00:56:54
(UTC+02:00)

CUTE 1.7 + AOD 2 - Visible Passes

Search period start: 25 April 2024 00:00
Search period end: 05 May 2024 00:00
Orbit: 570 x 588 km, 97.8° (Epoch: 24 April)

Date Brightness Start Highest point End Pass type
(mag) Time Alt. Az. Time Alt. Az. Time Alt. Az.
25 Apr ? 03:56:40 10° ENE 03:57:41 11° E 03:58:43 10° ESE visible
25 Apr ? 05:29:25 10° N 05:33:30 72° WNW 05:37:31 10° SSW visible
26 Apr ? 04:00:47 10° ENE 04:02:28 12° E 04:04:08 10° ESE visible
26 Apr ? 05:34:09 10° N 05:38:12 64° WNW 05:42:12 10° SSW visible
27 Apr ? 04:05:06 10° ENE 04:07:13 14° E 04:09:18 10° ESE visible
27 Apr ? 05:38:52 10° N 05:42:52 56° WNW 05:46:51 10° SSW visible
28 Apr ? 04:09:29 10° NE 04:11:55 15° E 04:14:21 10° SE visible
28 Apr ? 05:43:34 10° N 05:47:32 50° WNW 05:51:27 10° SSW visible
29 Apr ? 04:13:54 10° NE 04:16:37 17° E 04:19:19 10° SE visible
29 Apr ? 05:48:16 10° N 05:52:09 44° WNW 05:56:01 10° SW visible
30 Apr ? 04:18:21 10° NE 04:21:17 19° E 04:24:13 10° SE visible
01 May ? 04:22:47 10° NE 04:25:55 21° E 04:29:03 10° SE visible
02 May ? 04:27:13 10° NE 04:30:32 23° E 04:33:50 10° SSE visible
03 May ? 04:31:41 10° NE 04:35:07 26° E 04:38:34 10° SSE visible
04 May ? 04:36:06 10° NE 04:39:41 29° E 04:43:15 10° SSE visible
